{"data":{"norad_id":63772,"intl_designator":"2025-090A","name":"BIOMASS","alt_names":[],"object_type":"PAYLOAD","status":"ACTIVE","operator":null,"country":"ESA","launch_date":"2025-04-29","launch_site_code":"FRGUI","launch_vehicle":null,"mission":null,"orbit_class":"UNKNOWN","rcs_meters":null,"size_class":null,"mass_kg":null,"dimensions":null,"purposes":["earth_obs"],"wikipedia_slug":null,"has_3d_model":false,"image_url":null,"decayed_at":null,"tle_current":{"epoch":"2026-09-18T23:51:35.475840Z","epoch_age_seconds":148453,"freshness":"FRESH","line1":"1 63772U 25090A   26261.99416060  .00000765  00000+0  14341-3 0  9996","line2":"2 63772  98.0730  87.9638 0001429  95.8606 264.2761 14.67534080 74440","mean_motion":14.6753408,"eccentricity":0.0001429,"inclination_deg":98.073,"raan_deg":87.9638,"arg_perigee_deg":95.8606,"mean_anomaly_deg":264.2761,"bstar":0.00014341,"rev_number":7444,"period_min":98.123785990714,"perigee_km":667.94423460492,"apogee_km":669.95829243063,"semimajor_km":7047.0882635178,"source":"CELESTRAK","updated_at":"2026-09-20T09:00:33.981291Z"}}}